HISPASAT 1D 
1 27528U 02044A   03059.59299034 -.00000236  00000-0  00000+0 0  1197
2 27528   0.0319 305.4820 0005967  14.0598  21.8791  1.00269710  1662
EUTELSAT W5 
1 27554U 02051A   03059.07842632 -.00000062  00000-0  00000+0 0   843
2 27554   0.0508 251.3781 0004284 130.1605 234.6427  1.00271961  1049
TDRS 10 
1 27566U 02055A   03059.54506273  .00000111  00000-0  00000+0 0   800
2 27566   6.8313 296.7611 0003280  40.3225 226.2671  1.00275884   933
NIMIQ 2 
1 27632U 02062A   03058.72835043 -.00000252  00000-0  00000+0 0   246
2 27632   0.0468 252.2574 0029502  45.3715  31.5867  1.00779132   639
INTELSAT 511
1 15873U 85055A   03055.57017470 -.00000235  00000-0  10000-3 0  6207
2 15873   7.3571  57.3514 0003563 261.1402  11.1754  1.00267747 39305
INTELSAT 513
1 19121U 88040A   03059.43084571  .00000048  00000-0  10000-3 0  1788
2 19121   5.8893  69.0836 0003137 286.7949 140.1767  1.00268975 30670
INTELSAT 515
1 19772U 89006A   03053.16050302  .00000067  00000-0  00000+0 0   866
2 19772   4.4728  78.4180 0023996 239.6911 120.2978  0.99104545 40247
INTELSAT 602
1 20315U 89087A   03055.75302750  .00000142  00000-0  00000+0 0  8091
2 20315   1.0967  93.6647 0002215  91.2423 273.2755  1.00275412 46612
INTELSAT 603
1 20523U 90021A   03055.95592003 -.00000169  00000-0  00000+0 0  3800
2 20523   0.5539  95.6074 0001600 236.2197 146.7057  1.00270610 40375
INTELSAT 604
1 20667U 90056A   03060.46557457 -.00000157  00000-0  00000+0 0  6072
2 20667   0.8382  95.0502 0000414 154.3204 234.0618  1.00270516 49282
INTELSAT 605
1 21653U 91055A   03059.74446574 -.00000222  00000-0  00000+0 0  7281
2 21653   0.0100 114.1250 0000470 224.6148  59.8633  1.00273212 42257
INTELSAT 601
1 21765U 91075A   03057.01421493 -.00000002  00000-0  00000+0 0  5822
2 21765   0.0310 111.1054 0001898 202.2316 271.4476  1.00273649 41325
INTELSAT K 
1 21989U 92032A   03057.46482132 -.00000092  00000-0  00000+0 0  4749
2 21989   0.4545 109.7820 0088617 125.3470 124.0038  0.97179041 49771
INTELSAT 701
1 22871U 93066A   03058.39037593  .00000034  00000-0  10000-3 0  1846
2 22871   0.0315 290.3158 0002966  65.7200 121.2919  1.00273767 34131
INTELSAT 702
1 23124U 94034A   03057.81334757  .00000068  00000-0  00000+0 0  1383
2 23124   0.0272 120.2477 0000861 106.7378 276.9955  1.00271940 46046
INTELSAT 703
1 23305U 94064A   03058.74689235  .00000053  00000-0  10000-3 0  8223
2 23305   0.0079 173.1452 0008450 185.5678 124.2399  1.00273091 30850
INTELSAT 704
1 23461U 95001A   03056.67058087 -.00000017  00000-0  10000-3 0  8886
2 23461   0.0395 103.6227 0005302 249.3115 109.5722  1.00272114 29804
INTELSAT 705
1 23528U 95013A   03059.02137733 -.00000302  00000-0  00000+0 0  1145
2 23528   0.0361 289.4976 0003572   2.7939 182.8053  1.00269194 29004
INTELSAT 706
1 23571U 95023A   03058.22257120 -.00000303  00000-0  10000-3 0  8657
2 23571   0.0277 268.7542 0002320  66.6869 208.2892  1.00272104 28488
INTELSAT 707
1 23816U 96015A   03058.89512150 -.00000031  00000-0  00000+0 0  8564
2 23816   0.0591 287.6654 0002727  61.4579 129.3829  1.00270498 25502
INTELSAT 709
1 23915U 96035A   03058.16928142 -.00000304  00000-0  10000-3 0  8522
2 23915   0.0152 210.2064 0001581 137.6887 174.2582  1.00271742 24571
INTELSAT 801
1 24742U 97009A   03059.97027168 -.00000244  00000-0  10000-3 0  8276
2 24742   0.0688 294.5420 0004142  60.0073 121.5304  1.00268184 22028
INTELSAT 802
1 24846U 97031A   03059.48203225 -.00000010  00000-0  10000-3 0  7193
2 24846   0.0389 292.6132 0003471  52.2958 160.4589  1.00271565 20852
INTELSAT 803
1 24957U 97053A   03058.33787654  .00000053  00000-0  00000+0 0  6994
2 24957   0.0766  96.9678 0003160 252.2525 112.1406  1.00273029 19915
INTELSAT 804
1 25110U 97083A   03059.39804965  .00000005  00000-0  00000+0 0  6886
2 25110   0.0428 285.0143 0004979  80.3060 111.7316  1.00273193 19099
INTELSAT 806
1 25239U 98014A   03054.73702065 -.00000272  00000-0  10000-3 0  6628
2 25239   0.0471 300.1189 0004335  32.5951  45.2523  1.00268868 18354
INTELSAT 805
1 25371U 98037A   03060.08646303 -.00000305  00000-0  10000-3 0  5678
2 25371   0.0426 288.3001 0002490  52.4832 153.2729  1.00269789 17259
INTELSAT 901
1 26824U 01024A   03057.35532211 -.00000158  00000-0  00000+0 0  3039
2 26824   0.0401 106.8246 0001806 221.3501 297.4779  1.00270159  6326
INTELSAT 902
1 26900U 01039A   03059.74380231  .00000013  00000-0  10000-3 0  2457
2 26900   0.0147 130.5662 0002495 212.1445 145.1671  1.00273493  5529
INTELSAT 904
1 27380U 02007A   03057.01355411  .00000033  00000-0  10000-3 0  1558
2 27380   0.0033 179.2055 0002570 169.6554 231.4212  1.00271511  3744
INTELSAT 903
1 27403U 02016A   03060.15605904 -.00000258  00000-0  10000-3 0  2111
2 27403   0.0214  69.3316 0002575 287.7522 183.0721  1.00268659  3434
INTELSAT 905
1 27438U 02027A   03059.96529844 -.00000204  00000-0  00000+0 0  1436
2 27438   0.0114 136.8795 0002835 212.7688 131.6962  1.00271773  2753
INTELSAT 906
1 27513U 02041A   03059.73801147 -.00000005  00000-0  00000+0 0  1125
2 27513   0.0229 110.9497 0002677 245.8714 131.1072  1.00272962  1800
INTELSAT 907
1 27683U 03007A   03059.58695404 -.00000212  00000-0  10000-3 0   243
2 27683   0.1004 277.5208 0002421  82.7543 343.1968  1.00269803   151
GORIZONT 25 
1 21922U 92017A   03058.14460413 -.00000307  00000-0  00000+0 0  7206
2 21922   6.6597  61.2438 0002716 298.9778 347.9029  1.00264928 39896
GORIZONT 26 
1 22041U 92043A   03060.09565579 -.00000136  00000-0  00000+0 0  4267
2 22041   6.4276  62.6410 0001960 322.7817 153.3289  1.00269729 38896
GORIZONT 27 
1 22245U 92082A   03059.19068462  .00000083  00000-0  10000-3 0  4179
2 22245   6.2572  64.6256 0003667 349.3206 188.8973  1.00273091 41885
GORIZONT 28 
1 22880U 93069A   03059.84653414 -.00000302  00000-0  00000+0 0  2997
2 22880   5.6081  68.6489 0001830 330.5992 160.3857  1.00269194 34207
GORIZONT 29 
1 22907U 93072A   03058.70953738  .00000080  00000-0  10000-3 0  9294
2 22907   5.5630  68.6968 0004006 300.3361  59.8161  1.00254278 33971
GORIZONT 30 
1 23108U 94030A   03058.72148976  .00000000  00000-0  10000-3 0  7992
2 23108   5.3438  70.7617 0003194   4.9968 355.2052  1.00216450 32152
GORIZONT 31 
1 23775U 96005A   03060.25406168 -.00000341  00000-0  00000+0 0  5236
2 23775   4.0494  77.6006 0001791 272.5512   3.0540  1.00263858 26008
GORIZONT 32 
1 23880U 96034A   03058.92715898  .00000078  00000-0  10000-3 0  5274
2 23880   3.8602  79.8691 0002265 312.6559 151.5509  1.00263633 24767
GORIZONT 33 
1 26372U 00029A   03058.40446181 -.00000263  00000-0  00000-0 0  8479
2 26372   0.8882  85.0264 0001739 311.8610  50.3917  1.00274333 10091
RADUGA 32 
1 23448U 94087A   03056.57215044 -.00000094  00000-0  10000-3 0  3881
2 23448   4.8231  74.3270 0004229  23.8356 336.3598  1.00283224 47581
RADUGA 1-4 
1 25642U 99010A   03060.18483522  .00000138  00000-0  10000-3 0  9794
2 25642   3.0407 111.3419 0002123 293.3721 215.4816  1.00283573 14652
RADUGA 1-5 
1 26477U 00049A   03058.93016706  .00000102  00000-0  10000-3 0  6980
2 26477   0.6675  92.4505 0001237 298.7536 149.5448  1.00276849  9157
RADUGA 1-6 
1 26936U 01045A   03058.26202744 -.00000200  00000-0  10000-3 0  4070
2 26936   0.3043 240.6681 0002437 152.9331 302.3678  1.00264819  5112
MOLNIYA 3-37
1 20444U 90006A   03058.18443966  .00007831 -64448-6  64650-3 0  7394
2 20444  61.6933 155.0285 7524427 261.5870  15.5447  2.00984557 95965
MOLNIYA 1-77
1 20583U 90039A   03058.48775272  .00000730  00000-0  85741-3 0  4855
2 20583  62.4983 277.3273 7441225 248.8191  22.1076  2.06339982 94307
MOLNIYA 3-38
1 20646U 90052A   03057.45726423  .00000422  00000-0  55135-3 0  5572
2 20646  62.6395 274.1828 7293125 261.2381  17.7541  2.21253418 93932
MOLNIYA 1-78
1 20742U 90071A   03058.83299558 -.00002327  00000-0  00000+0 0  6101
2 20742  63.3717   0.3147 7478606 244.8573  24.1530  2.00695534 91986
MOLNIYA 3-39
1 20813U 90084A   03058.86465610 -.00001454  00000-0  00000+0 0   600
2 20813  64.2068  48.7172 7319114 254.0353  20.8464  2.00880260 91133
MOLNIYA 1-79
1 20949U 90101A   03058.77936213 -.00001209  00000-0  10000-3 0  8838
2 20949  62.8438 212.8455 7157612 256.4754 337.3023  2.00925000 89888
MOLNIYA 1-80
1 21118U 91012A   03058.66279225  .00000434  00000-0  00000-0 0  4874
2 21118  64.4983 188.9872 6477246 260.3537  45.1526  2.00585566 88167
MOLNIYA 3-40
1 21196U 91022A   03058.24236471 -.00000896  00000-0  10000-3 0  8771
2 21196  64.3658 182.2843 6533936 258.1417  26.8320  2.00414072 87460
MOLNIYA 1-81
1 21426U 91043A   03058.43819538  .00000000  00000-0  10000-3 0  1366
2 21426  63.5202 198.6427 6741805 259.8695  23.7018  2.00595051 85716
MOLNIYA 1-82
1 21630U 91053A   03058.46359618 -.00000827  00000-0  00000+0 0  2404
2 21630  61.9785 224.1460 7380394 254.4283  19.8833  2.00658862 84811
MOLNIYA 3-41
1 21706U 91065A   03059.06114569  .00000793  00000-0  16642-2 0  2708
2 21706  63.7066  56.6739 7409968 256.8083  18.5921  2.00757172 83870
MOLNIYA 1-83
1 21897U 92011A   03059.20449228  .00000328  00000-0 -31304-3 0  1314
2 21897  64.4686  31.6505 7410285 247.9292  35.3050  2.00597909 80505
MOLNIYA 1-84
1 22068U 92050A   03058.09736813 -.00000084  00000-0  00000+0 0  8022
2 22068  64.3715  78.9645 7346806 246.3449  24.7875  2.00634887 77387
MOLNIYA 3-42
1 22178U 92067A   03058.34048175  .00000000  00000-0  10000-3 0  5824
2 22178  63.9432 164.6448 6856275 259.3311  22.8480  2.00602279 75997
